Regional Weather Roundup
Issued by NWS

Home | Current Version | Previous Version | Graphics & Text | Print | Product List | Glossary On
Versions: 1 2 3 4 5 6 7 8 9 10 11 12 13 14 15 16 17 18 19 20 21 22 23 24 25 26 27 28 29 30 31 32 33 34 35 36 37 38 39 40 41 42 43 44 45 46 47 48 49 50
000
ASUS43 KLOT 192012
RWRIL

ILLINOIS REGIONAL WEATHER ROUNDUP
NATIONAL WEATHER SERVICE CHICAGO/ROMEOVILLE IL
300 PM CDT SUN APR 19 2015

NOTE: "FAIR" INDICATES FEW OR NO CLOUDS BELOW 12,000 FEET WITH NO
SIGNIFICANT WEATHER AND/OR OBSTRUCTIONS TO VISIBILITY.

* THESE STATIONS ARE NOT UNDER NWS QUALITY CONTROL. THEY ALSO MAY NOT
  REPORT WEATHER SUCH AS PRECIPITATION OR FOG.

ILZ001-002-007-009-015-016-024-192100-
NORTHWEST ILLINOIS

CITY           SKY/WX    TMP DP  RH WIND       PRES   REMARKS
MOLINE         MOSUNNY   70  47  43 SE21      29.53F
STERLING*      CLOUDY    63  48  59 SE10G17   29.57F
SAVANNA*       PTSUNNY   78  42  27 SE16      29.53F
$$

ILZ003-004-008-010-011-017-018-192100-
NORTH CENTRAL ILLINOIS

CITY           SKY/WX    TMP DP  RH WIND       PRES   REMARKS
ROCKFORD       CLOUDY    71  42  35 SE12      29.57F
FREEPORT*      CLOUDY    71  44  38 SE16      29.57F
ROCHELLE*      CLOUDY    67  43  41 S14       29.58F
DE KALB*       CLOUDY    68  43  40 SE12      29.58F
PERU*          DRIZZLE   58  54  84 E7        29.58F
$$

ILZ005-006-012>014-019>023-192100-
NORTHEAST ILLINOIS

CITY           SKY/WX    TMP DP  RH WIND       PRES   REMARKS
CHICAGO-OHARE  CLOUDY    61  38  42 NE12      29.59F
CHICAGO-MIDWAY CLOUDY    64  42  44 E9        29.58F
AURORA         CLOUDY    69  43  38 SE14      29.57F
LANSING*       LGT RAIN  62  46  57 SE9       29.59F
JOLIET*        DRIZZLE   66  48  52 E7        29.57F
WAUKEGAN       CLOUDY    55  34  45 NE8       29.62F
DUPAGE AIRPORT CLOUDY    68  40  35 E13       29.57F
KANKAKEE*      LGT RAIN  57  53  86 NE14      29.57F
WHEELING       CLOUDY    56  35  45 NE10      29.62F
MORRIS*        LGT RAIN  61  52  72 CALM      29.55F
ROMEOVILLE*    LGT RAIN  63  48  57 SE7       29.57F
NORTHERLY ISL    N/A     51  40  65 MISG        N/A
$$

LMZ740>746-192100-
SOUTHERN LAKE MICHIGAN

STATION/POSITION SKY/WX   TEMP    WIND        PRES    VSBY  WAVE
                          AIR SEA DIR/SP/G                  HT/PER
                          (F)     (DEG/KT/KT) (MB)    (MI)  (FT/S)
HARRISON CRIB              46     340/ 11/ 12   N/A
BURNHAM HARBOR             51      10/  5/ 10   N/A
CALUMET HARBOR             53     340/  7/  9   N/A
BURNS HARBOR               67     120/ 10/ 23 1004.1F
MICHIGAN CITY              66     100/ 14/ 18   N/A
MICHIGAN CITY 6N           55 44  130/ 10/ 12   N/A           2/ 5
$$

ILZ025>027-034>036-040-047-049-050-058-095>099-192100-
WEST-CENTRAL ILLINOIS

CITY           SKY/WX    TMP DP  RH WIND       PRES   REMARKS
QUINCY         LGT RAIN  67  56  67 SW3       29.54F
GALESBURG*     RAIN      61  53  75 E8        29.54F
MACOMB*        LGT RAIN  59  56  90 E8        29.56F
JACKSONVILLE*  HVY RAIN  60  58  94 CALM      29.53F
PITTSFIELD*    RAIN      61  57  88 CALM      29.56F
$$

ILZ028>032-037-038-041>044-048-051>054-059>061-192100-
CENTRAL ILLINOIS

CITY           SKY/WX    TMP DP  RH WIND       PRES   REMARKS
PONTIAC        LGT RAIN  58  55  88 E9        29.56F
BLOOMINGTON    LGT RAIN  58  57  96 NE13      29.54F
DECATUR        CLOUDY    59  56  89 E15       29.50F FOG
PEORIA         LGT RAIN  61  54  77 VRB3      29.54F
LACON*         LGT RAIN  57  53  85 E10       29.56F
LINCOLN*       RAIN      59  57  92 N8        29.51F
SPRINGFIELD    LGT RAIN  59  57  93 N8        29.52F FOG
TAYLORVILLE    CLOUDY    57  55  94 NE3       29.51F FOG
$$

ILZ033-039-045-046-055>057-062-063-192100-
EAST-CENTRAL ILLINOIS

CITY           SKY/WX    TMP DP  RH WIND       PRES   REMARKS
CHAMPAIGN      LGT RAIN  56  55  97 NE16      29.51F VSB 1
DANVILLE*      LGT RAIN  55  54  97 E9        29.50F
RANTOUL*       LGT RAIN  56  55  94 NE14      29.52F
MATTOON        LGT RAIN  59  59 100 E6        29.47F FOG
PARIS*         LGT RAIN  58  58 100 E7        29.50F
$$

ILZ079-100>102-192100-
SOUTHWEST ILLINOIS

CITY           SKY/WX    TMP DP  RH WIND       PRES   REMARKS
ALTON          DRIZZLE   61  59  94 NW9       29.53
BELLEVILLE     LGT RAIN  62  62 100 NW3       29.51F
CAHOKIA*       LGT RAIN  64  60  87 CALM      29.52F FOG
SPARTA*        RAIN      60  60  97 NW6       29.53F
$$

ILZ064>066-069>071-074>076-080>082-084>086-088>090-092>094-192100-
SOUTH-CENTRAL ILLINOIS

CITY           SKY/WX    TMP DP  RH WIND       PRES   REMARKS
CARBONDALE     LGT RAIN  64  62  93 W9        29.49F
CAIRO*         CLOUDY    70  65  83 W13G18    29.50F
EFFINGHAM*     DRIZZLE   61  58  91 CALM      29.49F
MARION         HVY RAIN  66  64  94 SE6       29.49F
MT. VERNON     CLOUDY    63  57  82 W5        29.50F
CENTRALIA*     CLOUDY    61  57  87 W7        29.50F FOG
SALEM*         CLOUDY    62  59  90 W7        29.50F FOG
METROPOLIS*    CLOUDY    70  69  96 SW9       29.49F
$$

ILZ067-068-072-073-078-083-087-091-192100-
SOUTHEAST ILLINOIS

CITY           SKY/WX    TMP DP  RH WIND       PRES   REMARKS
LAWRENCEVILLE  LGT RAIN  63  63 100 S3        29.49F FOG
FLORA*         LGT RAIN  63  62  98 SW8       29.48F
FAIRFIELD*     CLOUDY    64  64  97 S6        29.47F
HARRISBURG*    CLOUDY    68  67  96 SW7       29.49F
ROBINSON*      LGT RAIN  61  61  97 SE6       29.52F
CARMI*         CLOUDY    66  61  85 S6        29.48F
$$

ABBREVIATIONS USED IN REMARKS
   TC - TEMPERATURE IN CELSIUS
  WCI - WIND CHILL INDEX
   HX - HEAT INDEX
  VSB - VISIBILITY
$$




USA.gov is the U.S. government's official web portal to all federal, state and local government web resources and services.